QPF
0.01 0.02 0.02 0.02 0.03 0.02 0.02 0.02 0.02 0.01 0.01 0.01 0.01 0.01 0.02 0.04 0.03 0.03 0.02 0.02 0.01 0.02 0.02 0.02 0.03 0.01 0.02 0.02 0.04 0.03 0.08 0.03 0.14 0.23 0.13 0.22 0.06 0.14 0.07 0.07 0.14 0.04
0.01 0.01 0.01 0.01 0.01 0.01 0.01 0.01 0.01 0.01 0.01 0.01 0.01 0.01 0.01 0.01 0.03 0.03 0.02 0.01 0.03 0.02 0.02 0.02 0.03 0.02 0.03 0.02 0.04 0.17 0.12 0.06 0.21 0.12 0.20 0.16 0.29 0.05 0.03 0.02 0.03 0.22
0.01 0.01 0.02 0.02 0.01 0.02 0.01 0.01 0.01 0.02 0.01 0.01 0.03 0.04 0.02 0.01 0.03 0.03 0.03 0.02 0.03 0.03 0.03 0.03 0.02 0.01 0.07 0.14 0.03 0.18 0.06 0.02 0.02 0.04 0.06 0.16 0.14 0.03 0.09 0.02 0.02 0.09
0.02 0.01 0.02 0.02 0.02 0.01 0.01 0.02 0.02 0.02 0.02 0.03 0.02 0.04 0.04 0.01 0.02 0.03 0.02 0.02 0.03 0.07 0.14 0.03 0.02 0.01 0.02 0.02 0.02 0.04 0.01 0.02 0.01 0.03 0.07 0.04 0.02 0.02 0.10 0.04 0.05 0.08
0.00 0.00 0.01 0.01 0.01 0.02 0.01 0.02 0.01 0.01 0.02 0.02 0.02 0.03 0.02 0.02 0.04 0.03 0.03 0.02 0.03 0.02 0.02 0.02 0.02 0.01 0.01 0.02 0.01 0.02 0.01 0.01 0.02 0.01 0.02 0.07 0.03 0.02 0.05 0.02 0.03 0.02
0.00 0.00 0.00 0.01 0.01 0.01 0.02 0.03 0.02 0.02 0.02 0.02 0.03 0.02 0.02 0.02 0.02 0.02 0.03 0.02 0.02 0.02 0.02 0.02 0.02 0.01 0.01 0.01 0.01 0.01 0.02 0.02 0.01 0.02 0.02 0.01 0.03 0.03 0.01 0.02 0.01 0.01
0.00 0.00 0.00 0.01 0.01 0.01 0.02 0.02 0.02 0.01 0.03 0.02 0.04 0.04 0.02 0.02 0.03 0.04 0.02 0.10 0.03 0.10 0.04 0.02 0.02 0.02 0.01 0.01 0.01 0.01 0.01 0.01 0.01 0.01 0.01 0.01 0.01 0.01 0.02 0.03 0.01 0.01
0.00 0.00 0.00 0.01 0.01 0.01 0.01 0.02 0.01 0.03 0.02 0.02 0.02 0.01 0.02 0.01 0.01 0.03 0.02 0.01 0.18 0.09 0.08 0.02 0.06 0.01 0.01 0.01 0.01 0.01 0.01 0.01 0.01 0.02 0.02 0.01 0.02 0.01 0.01 0.01 0.02 0.02
0.00 0.00 0.00 0.00 0.01 0.01 0.01 0.03 0.02 0.02 0.02 0.04 0.32 0.17 0.15 0.02 0.02 0.02 0.01 0.08 0.09 0.17 0.27 0.11 0.02 0.01 0.01 0.01 0.01 0.01 0.01 0.01 0.01 0.02 0.02 0.02 0.02 0.01 0.01 0.01 0.01 0.02
0.00 0.00 0.00 0.00 0.00 0.01 0.01 0.01 0.02 0.03 0.05 0.15 0.23 0.37 0.30 0.10 0.21 0.09 0.06 0.06 0.04 0.08 0.03 0.02 0.01 0.01 0.01 0.01 0.01 0.01 0.01 0.00 0.01 0.01 0.01 0.01 0.01 0.01 0.01 0.01 0.01 0.01
0.00 0.00 0.00 0.00 0.00 0.00 0.01 0.02 0.03 0.03 0.11 0.38 0.42 0.38 0.21 0.11 0.23 0.28 0.17 0.15 0.11 0.04 0.05 0.04 0.00 0.00 0.00 0.01 0.01 0.01 0.01 0.01 0.01 0.01 0.01 0.01 0.01 0.01 0.02 0.01 0.01 0.01
0.00 0.00 0.00 0.00 0.00 0.00 0.01 0.01 0.08 0.11 0.05 0.13 0.06 0.18 0.27 0.14 0.37 0.26 0.25 0.14 0.10 0.06 0.05 0.05 0.01 0.01 0.00 0.00 0.00 0.01 0.01 0.01 0.01 0.01 0.01 0.01 0.01 0.01 0.01 0.01 0.01 0.01
0.00 0.00 0.00 0.00 0.00 0.00 0.01 0.02 0.03 0.11 0.09 0.13 0.23 0.20 0.14 0.29 0.33 0.22 0.25 0.15 0.09 0.13 0.07 0.06 0.01 0.01 0.01 0.00 0.00 0.00 0.01 0.01 0.01 0.01 0.01 0.01 0.02 0.01 0.01 0.01 0.01 0.02
0.00 0.00 0.00 0.00 0.00 0.00 0.01 0.04 0.09 0.13 0.26 0.35 0.51 0.34 0.22 0.24 0.21 0.15 0.31 0.17 0.28 0.70 0.45 0.46 0.16 0.01 0.01 0.00 0.00 0.00 0.00 0.01 0.01 0.01 0.01 0.01 0.01 0.02 0.02 0.03 0.02 0.01
0.00 0.00 0.00 0.00 0.00 0.00 0.01 0.03 0.13 0.15 0.20 0.22 0.25 0.39 0.36 0.29 0.19 0.13 0.19 0.10 0.01 0.17 0.24 0.26 0.15 0.11 0.01 0.00 0.00 0.00 0.00 0.00 0.02 0.02 0.01 0.01 0.01 0.01 0.01 0.02 0.01 0.01
0.00 0.00 0.00 0.00 0.00 0.00 0.01 0.03 0.07 0.16 0.21 0.25 0.35 0.29 0.32 0.13 0.08 0.02 0.01 0.09 0.02 0.18 0.19 0.28 0.20 0.12 0.02 0.00 0.01 0.00 0.01 0.00 0.01 0.01 0.01 0.01 0.01 0.01 0.01 0.01 0.01 0.01
0.00 0.00 0.00 0.00 0.00 0.00 0.00 0.01 0.05 0.07 0.15 0.15 0.21 0.24 0.20 0.09 0.13 0.06 0.05 0.06 0.01 0.01 0.08 0.09 0.08 0.03 0.04 0.00 0.00 0.00 0.01 0.01 0.02 0.01 0.01 0.01 0.01 0.01 0.01 0.01 0.01 0.00
0.00 0.00 0.00 0.00 0.00 0.00 0.00 0.00 0.01 0.05 0.07 0.09 0.13 0.15 0.16 0.14 0.11 0.07 0.03 0.01 0.05 0.05 0.14 0.37 0.28 0.30 0.04 0.00 0.00 0.00 0.00 0.01 0.01 0.02 0.01 0.01 0.01 0.01 0.01 0.00 0.00 0.00
0.00 0.00 0.00 0.00 0.00 0.00 0.00 0.00 0.00 0.01 0.03 0.06 0.08 0.09 0.10 0.07 0.15 0.21 0.07 0.02 0.01 0.01 0.03 0.09 0.31 0.08 0.04 0.01 0.00 0.00 0.00 0.00 0.02 0.01 0.01 0.01 0.00 0.00 0.01 0.00 0.00 0.00
0.00 0.00 0.00 0.00 0.00 0.00 0.00 0.00 0.00 0.00 0.01 0.02 0.05 0.08 0.11 0.16 0.08 0.05 0.16 0.13 0.05 0.01 0.04 0.12 0.17 0.06 0.01 0.00 0.00 0.00 0.00 0.00 0.01 0.01 0.01 0.02 0.02 0.01 0.01 0.00 0.00 0.00
0.00 0.00 0.00 0.00 0.00 0.00 0.00 0.00 0.00 0.00 0.00 0.01 0.01 0.02 0.04 0.06 0.09 0.09 0.14 0.07 0.02 0.03 0.01 0.00 0.06 0.00 0.00 0.00 0.00 0.00 0.00 0.00 0.01 0.01 0.01 0.01 0.02 0.01 0.01 0.00 0.00 0.00
0.00 0.00 0.00 0.00 0.00 0.00 0.00 0.00 0.00 0.00 0.00 0.00 0.00 0.01 0.02 0.02 0.02 0.03 0.06 0.12 0.17 0.10 0.03 0.02 0.00 0.01 0.00 0.00 0.00 0.00 0.00 0.00 0.01 0.01 0.01 0.01 0.01 0.02 0.01 0.00 0.00 0.00
0.00 0.00 0.00 0.00 0.00 0.00 0.00 0.00 0.00 0.00 0.00 0.00 0.00 0.00 0.00 0.01 0.01 0.01 0.02 0.02 0.06 0.12 0.05 0.08 0.04 0.01 0.00 0.01 0.00 0.00 0.00 0.00 0.00 0.02 0.01 0.01 0.00 0.00 0.01 0.01 0.01 0.00
0.00 0.00 0.00 0.00 0.00 0.00 0.00 0.00 0.00 0.00 0.00 0.00 0.00 0.00 0.00 0.00 0.01 0.02 0.03 0.03 0.18 0.06 0.08 0.12 0.17 0.04 0.03 0.05 0.05 0.00 0.00 0.00 0.01 0.03 0.01 0.00 0.00 0.00 0.00 0.00 0.00 0.00
0.00 0.00 0.00 0.00 0.00 0.00 0.00 0.00 0.00 0.00 0.00 0.00 0.00 0.00 0.00 0.00 0.01 0.01 0.02 0.03 0.12 0.06 0.06 0.05 0.08 0.16 0.06 0.04 0.03 0.01 0.06 0.00 0.00 0.00 0.00 0.00 0.00 0.00 0.00 0.00 0.00 0.00
0.00 0.00 0.00 0.00 0.00 0.00 0.00 0.00 0.00 0.00 0.00 0.00 0.00 0.00 0.00 0.00 0.00 0.00 0.00 0.01 0.02 0.04 0.04 0.05 0.05 0.07 0.10 0.07 0.06 0.06 0.03 0.02 0.00 0.00 0.00 0.01 0.00 0.00 0.00 0.00 0.02 0.00
MSLP
1017.04 1016.84 1016.84 1016.76 1016.64 1016.48 1016.40 1016.40 1016.24 1016.12 1015.92 1015.80 1015.80 1015.64 1015.52 1015.44 1015.56 1015.64 1015.64 1015.64 1015.60 1015.72 1015.84 1016.00 1016.12 1016.40 1016.72 1016.92 1017.08 1017.20 1017.40 1017.64 1018.00 1018.08 1018.20 1018.28 1018.32 1018.36 1018.36 1018.40 1018.40 1018.28
1017.32 1017.00 1016.76 1016.64 1016.48 1016.36 1016.32 1016.28 1016.16 1015.96 1015.88 1015.84 1015.64 1015.48 1015.32 1015.16 1015.24 1015.32 1015.32 1015.32 1015.36 1015.56 1015.64 1015.72 1015.88 1016.12 1016.40 1016.68 1016.84 1017.04 1017.24 1017.36 1017.76 1017.76 1017.96 1018.04 1018.28 1018.40 1018.16 1018.08 1018.16 1018.20
1017.48 1017.12 1016.88 1016.64 1016.40 1016.16 1016.04 1015.88 1015.84 1015.84 1015.76 1015.60 1015.52 1015.52 1015.44 1015.12 1015.16 1015.12 1014.96 1014.96 1015.16 1015.32 1015.52 1015.60 1015.76 1015.88 1016.20 1016.32 1016.44 1016.64 1016.88 1017.08 1017.32 1017.52 1017.76 1017.80 1018.12 1018.00 1017.68 1017.76 1017.84 1018.16
1017.76 1017.48 1017.04 1016.68 1016.32 1016.08 1015.76 1015.60 1015.40 1015.40 1015.52 1015.56 1015.44 1015.32 1015.36 1015.08 1015.00 1015.00 1014.88 1014.84 1015.00 1015.36 1015.36 1015.32 1015.52 1015.68 1015.84 1015.96 1016.08 1016.28 1016.52 1016.68 1016.80 1017.08 1017.40 1017.12 1017.08 1017.08 1017.20 1017.40 1017.68 1018.08
1017.92 1017.56 1017.20 1016.76 1016.28 1015.96 1015.72 1015.52 1015.44 1015.24 1015.28 1015.20 1015.16 1015.16 1015.08 1014.96 1014.92 1014.84 1014.68 1014.60 1014.76 1014.92 1014.92 1015.04 1015.24 1015.44 1015.56 1015.68 1015.76 1016.00 1016.20 1016.40 1016.44 1016.56 1016.76 1016.96 1016.96 1016.92 1016.84 1017.16 1017.48 1017.64
1018.00 1017.72 1017.32 1016.92 1016.28 1016.00 1015.72 1015.40 1015.24 1015.16 1015.12 1015.12 1015.08 1014.96 1014.84 1014.72 1014.76 1014.64 1014.44 1014.44 1014.52 1014.68 1014.68 1014.72 1014.92 1015.00 1015.08 1015.28 1015.48 1015.68 1015.84 1016.04 1016.08 1016.24 1016.52 1016.68 1016.64 1016.60 1016.56 1016.72 1017.00 1017.12
1018.36 1017.96 1017.56 1017.12 1016.68 1016.08 1015.72 1015.40 1015.20 1015.12 1015.00 1014.88 1014.72 1014.80 1014.60 1014.56 1014.52 1014.40 1014.12 1014.20 1014.32 1014.56 1014.44 1014.52 1014.56 1014.68 1014.76 1015.04 1015.20 1015.40 1015.56 1015.76 1015.92 1016.00 1016.16 1016.28 1016.44 1016.56 1016.60 1016.64 1016.56 1016.68
1018.44 1018.16 1017.76 1017.36 1016.92 1016.40 1015.92 1015.48 1015.16 1014.88 1014.68 1014.56 1014.60 1014.44 1014.40 1014.28 1014.16 1014.04 1013.84 1014.00 1014.28 1014.60 1014.40 1014.36 1014.48 1014.40 1014.64 1014.84 1015.04 1015.20 1015.44 1015.64 1015.76 1015.84 1015.88 1016.08 1016.24 1016.36 1016.24 1016.28 1016.36 1016.48
1018.56 1018.36 1018.08 1017.56 1017.04 1016.48 1016.12 1015.76 1015.28 1014.88 1014.56 1014.60 1014.72 1014.48 1014.24 1014.16 1014.04 1013.84 1013.72 1013.88 1014.36 1014.64 1014.64 1014.88 1014.16 1014.12 1014.40 1014.64 1014.76 1014.88 1015.12 1015.36 1015.44 1015.52 1015.72 1015.92 1016.08 1016.04 1016.00 1016.04 1016.28 1016.32
1018.76 1018.52 1018.28 1017.92 1017.44 1016.84 1016.32 1015.80 1015.28 1014.88 1014.52 1014.52 1014.60 1014.52 1014.44 1014.44 1014.12 1013.92 1013.76 1013.68 1013.44 1013.60 1013.88 1013.76 1013.72 1013.92 1014.20 1014.40 1014.48 1014.60 1014.80 1015.04 1015.24 1015.28 1015.40 1015.56 1015.64 1015.68 1015.68 1015.88 1016.08 1016.24
1018.84 1018.64 1018.48 1018.20 1017.84 1017.28 1016.68 1015.88 1015.24 1014.84 1014.60 1014.52 1014.48 1014.64 1014.40 1014.16 1014.32 1014.04 1013.88 1013.52 1013.72 1013.96 1014.04 1014.00 1013.52 1013.68 1013.96 1014.16 1014.16 1014.32 1014.52 1014.76 1014.88 1015.00 1015.12 1015.24 1015.36 1015.36 1015.40 1015.52 1015.80 1016.04
1018.96 1018.76 1018.56 1018.36 1018.04 1017.60 1017.00 1016.28 1015.44 1014.88 1014.56 1014.44 1014.40 1014.56 1014.32 1014.00 1014.00 1013.96 1013.96 1013.92 1013.72 1013.56 1013.56 1013.68 1013.20 1013.36 1013.64 1013.76 1013.88 1014.08 1014.36 1014.48 1014.52 1014.68 1014.84 1015.04 1015.12 1015.12 1015.20 1015.32 1015.52 1015.76
1019.12 1018.92 1018.68 1018.44 1018.24 1017.84 1017.24 1016.44 1015.56 1014.92 1014.60 1014.48 1014.40 1014.20 1013.96 1013.88 1013.80 1013.72 1013.80 1013.64 1012.76 1012.76 1012.68 1012.68 1012.68 1012.92 1013.20 1013.48 1013.60 1013.80 1014.12 1014.32 1014.48 1014.56 1014.72 1014.84 1014.84 1014.92 1014.88 1015.04 1015.16 1015.32
1019.32 1019.04 1018.76 1018.56 1018.40 1018.00 1017.52 1016.88 1016.08 1015.20 1014.76 1014.60 1014.44 1014.16 1013.80 1013.76 1013.68 1013.56 1013.52 1013.32 1012.84 1012.72 1012.92 1012.84 1012.72 1012.72 1012.80 1013.08 1013.32 1013.64 1013.92 1014.12 1014.24 1014.44 1014.60 1014.68 1014.72 1014.68 1014.68 1014.84 1015.00 1015.08
1019.48 1019.12 1018.76 1018.52 1018.36 1018.20 1017.80 1017.36 1016.76 1016.00 1015.32 1014.76 1014.44 1014.20 1013.88 1013.76 1013.60 1013.32 1013.36 1013.04 1012.28 1012.72 1012.72 1013.04 1013.68 1013.20 1012.48 1012.80 1013.08 1013.40 1013.68 1013.96 1014.04 1014.20 1014.44 1014.64 1014.76 1014.72 1014.68 1014.72 1014.80 1014.92
1019.64 1019.32 1018.92 1018.64 1018.44 1018.20 1018.04 1017.76 1017.32 1016.88 1016.28 1015.52 1014.60 1014.24 1014.20 1013.84 1013.64 1013.40 1013.12 1013.16 1012.44 1012.52 1012.76 1013.12 1013.36 1012.84 1012.48 1012.76 1012.84 1012.96 1013.40 1013.64 1013.88 1014.08 1014.24 1014.40 1014.64 1014.76 1014.80 1014.72 1014.72 1014.84
1019.84 1019.48 1019.00 1018.84 1018.64 1018.40 1018.12 1017.80 1017.56 1017.44 1017.12 1016.72 1016.20 1015.44 1014.88 1014.28 1013.84 1013.52 1013.36 1013.20 1012.40 1012.16 1012.28 1012.88 1012.68 1012.40 1013.16 1012.96 1013.12 1013.24 1013.16 1013.36 1013.76 1013.96 1014.04 1014.20 1014.44 1014.64 1014.76 1014.72 1014.60 1014.60
1020.00 1019.68 1019.32 1019.08 1018.88 1018.68 1018.48 1018.24 1017.96 1017.76 1017.64 1017.36 1017.04 1016.56 1016.08 1015.60 1014.96 1014.60 1014.08 1013.64 1013.28 1013.16 1013.20 1013.52 1013.36 1014.00 1013.72 1013.52 1013.64 1013.68 1013.64 1013.48 1013.48 1013.76 1013.88 1014.00 1014.08 1014.28 1014.36 1014.36 1014.40 1014.40
1020.24 1020.00 1019.68 1019.36 1019.16 1019.00 1018.84 1018.68 1018.52 1018.28 1018.04 1017.84 1017.60 1017.36 1016.96 1016.56 1016.20 1015.80 1015.52 1014.96 1014.40 1013.84 1013.60 1013.56 1013.72 1014.52 1015.12 1015.20 1014.76 1014.48 1014.36 1014.20 1013.40 1013.32 1013.56 1013.68 1013.76 1013.88 1013.88 1013.96 1014.08 1014.28
1020.72 1020.40 1020.04 1019.76 1019.48 1019.28 1019.12 1019.04 1019.00 1018.92 1018.68 1018.40 1018.12 1017.80 1017.56 1017.36 1017.08 1016.84 1016.60 1016.28 1015.72 1014.96 1014.24 1014.08 1014.72 1015.40 1015.60 1015.76 1015.56 1015.40 1015.00 1014.88 1013.96 1013.20 1013.32 1013.40 1013.52 1013.56 1013.60 1013.68 1013.80 1014.04
1021.20 1020.80 1020.44 1020.08 1019.76 1019.48 1019.36 1019.28 1019.32 1019.32 1019.16 1018.84 1018.52 1018.36 1018.12 1017.84 1017.64 1017.36 1017.24 1017.00 1016.68 1016.24 1015.52 1014.76 1015.56 1016.12 1016.08 1016.00 1015.80 1015.68 1015.48 1015.32 1014.48 1013.40 1013.12 1013.20 1013.24 1013.36 1013.36 1013.40 1013.52 1013.68
1021.52 1021.20 1020.92 1020.52 1020.16 1019.84 1019.60 1019.56 1019.52 1019.48 1019.48 1019.40 1019.12 1018.88 1018.68 1018.40 1018.08 1017.84 1017.56 1017.36 1017.16 1016.88 1016.56 1016.32 1016.16 1016.76 1016.64 1016.28 1016.04 1015.80 1015.84 1015.36 1014.28 1013.48 1013.12 1013.00 1013.08 1013.16 1013.16 1013.12 1013.12 1013.32
1021.96 1021.56 1021.32 1020.96 1020.60 1020.32 1020.08 1019.88 1019.76 1019.64 1019.60 1019.48 1019.40 1019.36 1019.20 1018.96 1018.68 1018.36 1018.08 1017.84 1017.68 1017.56 1017.28 1017.04 1016.96 1017.12 1017.08 1016.60 1016.24 1015.96 1015.88 1014.92 1014.04 1013.40 1013.04 1012.92 1013.00 1013.16 1013.28 1013.16 1013.20 1013.32
1022.24 1021.96 1021.64 1021.36 1021.08 1020.84 1020.56 1020.28 1020.04 1019.88 1019.76 1019.60 1019.48 1019.44 1019.44 1019.44 1019.20 1018.92 1018.72 1018.60 1018.40 1018.08 1018.08 1017.68 1017.48 1017.44 1017.32 1016.76 1016.40 1016.04 1015.72 1014.96 1013.92 1013.36 1013.20 1012.96 1013.24 1013.36 1013.12 1013.20 1014.04 1014.44
1022.40 1022.24 1022.08 1021.88 1021.60 1021.32 1021.04 1020.72 1020.40 1020.20 1019.96 1019.72 1019.56 1019.40 1019.44 1019.36 1019.40 1019.36 1019.32 1019.16 1018.96 1018.64 1018.48 1018.16 1017.92 1017.68 1017.64 1017.32 1016.56 1016.24 1015.84 1015.04 1014.04 1013.20 1013.24 1013.40 1013.44 1013.64 1013.72 1013.92 1014.36 1014.76
1022.56 1022.52 1022.40 1022.20 1021.92 1021.72 1021.52 1021.24 1020.92 1020.68 1020.40 1020.08 1019.76 1019.52 1019.44 1019.40 1019.28 1019.16 1019.28 1019.44 1019.32 1019.08 1018.76 1018.64 1018.48 1018.12 1018.00 1017.76 1017.16 1016.44 1016.12 1015.76 1015.08 1014.16 1013.80 1013.88 1013.72 1013.64 1013.92 1014.32 1014.72 1015.08
Thickness
5640 5641 5640 5641 5641 5641 5641 5639 5639 5639 5639 5639 5639 5639 5640 5640 5638 5638 5638 5639 5640 5639 5639 5639 5638 5637 5635 5633 5633 5633 5632 5631 5630 5628 5628 5628 5627 5628 5630 5631 5630 5629
5636 5637 5637 5638 5638 5638 5637 5636 5636 5636 5636 5635 5636 5636 5637 5638 5637 5636 5637 5638 5638 5637 5636 5636 5636 5636 5634 5632 5632 5631 5630 5630 5629 5628 5628 5627 5625 5626 5629 5630 5629 5629
5630 5632 5633 5634 5635 5636 5635 5634 5634 5634 5632 5631 5631 5631 5633 5635 5635 5634 5635 5636 5636 5634 5634 5634 5634 5634 5633 5632 5631 5631 5630 5629 5628 5627 5626 5627 5626 5627 5630 5630 5629 5627
5626 5627 5628 5630 5632 5633 5633 5633 5632 5632 5630 5628 5628 5628 5629 5632 5632 5631 5632 5633 5632 5631 5631 5632 5632 5632 5632 5631 5631 5630 5629 5628 5629 5628 5627 5629 5629 5630 5631 5630 5628 5627
5621 5622 5624 5626 5629 5630 5630 5630 5629 5628 5627 5625 5624 5624 5626 5628 5629 5629 5630 5631 5629 5628 5629 5631 5631 5630 5630 5630 5630 5629 5628 5628 5629 5629 5628 5628 5629 5630 5631 5630 5629 5628
5617 5618 5619 5621 5624 5625 5625 5625 5625 5624 5624 5622 5621 5621 5623 5625 5625 5627 5628 5628 5627 5626 5628 5629 5629 5629 5629 5629 5628 5628 5628 5628 5628 5628 5627 5627 5628 5629 5630 5630 5629 5629
5611 5612 5614 5616 5619 5620 5621 5621 5621 5621 5620 5620 5619 5619 5621 5622 5622 5624 5626 5627 5625 5624 5626 5628 5628 5628 5628 5627 5627 5626 5626 5626 5626 5627 5626 5626 5627 5627 5628 5629 5630 5630
5606 5607 5609 5610 5613 5615 5616 5617 5617 5617 5618 5618 5617 5617 5618 5620 5621 5623 5625 5625 5622 5621 5623 5625 5626 5627 5626 5625 5625 5625 5625 5624 5624 5625 5625 5625 5625 5626 5628 5629 5629 5630
5601 5602 5603 5604 5607 5610 5611 5612 5613 5615 5615 5614 5613 5613 5615 5616 5617 5620 5623 5623 5622 5621 5621 5621 5623 5626 5625 5624 5625 5625 5624 5624 5623 5624 5624 5623 5624 5626 5628 5628 5628 5628
5596 5596 5597 5598 5601 5604 5606 5608 5610 5612 5612 5610 5609 5609 5610 5611 5612 5615 5619 5621 5622 5623 5622 5621 5623 5624 5623 5623 5624 5624 5624 5623 5623 5624 5624 5624 5624 5625 5627 5628 5626 5626
5591 5592 5592 5593 5594 5597 5600 5603 5607 5609 5608 5607 5605 5604 5605 5608 5608 5610 5613 5616 5618 5619 5619 5620 5623 5623 5622 5622 5623 5623 5624 5623 5623 5624 5623 5623 5623 5624 5626 5626 5625 5624
5587 5587 5587 5587 5589 5590 5593 5597 5602 5605 5604 5603 5601 5600 5602 5605 5606 5608 5610 5611 5615 5618 5618 5620 5622 5623 5622 5621 5622 5622 5622 5622 5623 5623 5622 5622 5622 5623 5624 5625 5624 5623
5582 5582 5583 5583 5583 5584 5587 5591 5596 5600 5600 5599 5598 5599 5601 5603 5604 5607 5608 5611 5618 5621 5621 5623 5624 5624 5622 5620 5621 5622 5620 5621 5621 5621 5621 5621 5621 5623 5623 5623 5623 5623
5577 5577 5578 5578 5578 5579 5581 5584 5589 5592 5594 5594 5594 5596 5599 5600 5602 5605 5606 5611 5619 5621 5620 5621 5620 5620 5622 5621 5620 5620 5619 5619 5619 5619 5619 5619 5619 5621 5622 5621 5621 5621
5571 5573 5574 5574 5574 5575 5576 5577 5581 5585 5588 5590 5591 5593 5594 5596 5599 5602 5604 5610 5616 5618 5618 5617 5614 5616 5621 5620 5619 5619 5618 5617 5617 5617 5616 5616 5616 5617 5618 5619 5619 5619
5566 5568 5570 5569 5570 5571 5572 5572 5574 5577 5579 5582 5585 5588 5589 5591 5595 5600 5604 5609 5614 5618 5617 5614 5612 5616 5618 5616 5617 5618 5616 5615 5614 5614 5614 5614 5613 5613 5613 5615 5616 5616
5562 5564 5565 5565 5565 5566 5568 5568 5569 5570 5571 5572 5575 5578 5582 5586 5591 5596 5600 5604 5610 5615 5614 5612 5613 5614 5612 5611 5613 5613 5614 5613 5611 5611 5612 5611 5611 5610 5610 5612 5614 5615
5557 5559 5560 5561 5560 5561 5561 5563 5564 5565 5565 5566 5567 5569 5573 5577 5582 5587 5591 5595 5601 5604 5605 5605 5606 5604 5601 5602 5605 5605 5606 5609 5610 5610 5609 5609 5609 5609 5609 5611 5613 5613
5551 5552 5554 5555 5555 5555 5555 5556 5557 5558 5559 5560 5561 5561 5565 5568 5571 5575 5578 5582 5589 5593 5596 5597 5595 5590 5588 5591 5594 5596 5597 5601 5606 5609 5608 5607 5608 5608 5609 5610 5611 5611
5543 5545 5547 5549 5550 5550 5550 5550 5549 5550 5551 5553 5555 5556 5558 5560 5562 5565 5567 5570 5575 5581 5587 5589 5584 5580 5580 5582 5584 5588 5590 5592 5599 5606 5607 5606 5606 5607 5608 5610 5610 5609
5536 5537 5540 5542 5544 5545 5546 5545 5544 5543 5544 5546 5548 5550 5551 5553 5555 5557 5559 5561 5565 5569 5575 5578 5575 5572 5573 5577 5579 5582 5584 5586 5593 5601 5603 5604 5604 5605 5606 5607 5608 5609
5528 5530 5532 5534 5537 5538 5539 5540 5539 5538 5538 5539 5540 5542 5543 5546 5548 5549 5552 5555 5557 5560 5563 5566 5567 5565 5566 5570 5574 5576 5578 5582 5590 5597 5600 5601 5602 5602 5603 5605 5607 5608
5520 5522 5524 5526 5529 5531 5532 5533 5534 5534 5534 5534 5534 5535 5536 5538 5540 5542 5545 5547 5549 5551 5553 5555 5557 5557 5559 5564 5568 5571 5574 5580 5588 5594 5597 5599 5599 5598 5600 5601 5601 5601
5513 5514 5516 5518 5520 5522 5523 5525 5527 5528 5529 5529 5529 5530 5530 5530 5532 5534 5536 5539 5541 5542 5544 5547 5549 5550 5553 5557 5562 5566 5569 5577 5585 5590 5592 5594 5594 5594 5595 5595 5593 5591
5506 5506 5508 5509 5511 5513 5515 5517 5518 5520 5522 5524 5525 5526 5526 5526 5526 5527 5528 5529 5532 5534 5536 5539 5541 5543 5546 5550 5554 5559 5563 5569 5578 5584 5586 5587 5587 5587 5587 5586 5585 5583
5499 5499 5500 5501 5503 5505 5507 5508 5510 5511 5513 5516 5518 5520 5521 5521 5522 5523 5522 5523 5524 5526 5529 5530 5532 5535 5538 5541 5546 5552 5556 5559 5566 5572 5576 5579 5579 5580 5580 5578 5577 5575